Regional Weather Roundup
Issued by NWS Jackson, KY

Home | Current Version | Previous Version | Graphics & Text | Print | Product List | Glossary On
Versions: 1 2 3 4 5 6 7 8 9 10 11 12 13 14 15 16 17 18 19 20 21 22 23 24 25 26 27 28 29 30 31 32 33 34 35 36 37 38 39 40 41 42 43 44 45 46 47 48 49 50
000
ASUS43 KJKL 300811
RWRJKL

EAST KENTUCKY HOURLY WEATHER ROUNDUP
NATIONAL WEATHER SERVICE JACKSON KY
400 AM EDT TUE SEP 30 2014

NOTE: "FAIR" INDICATES FEW OR NO CLOUDS BELOW 12,000 FEET WITH
NO SIGNIFICANT WEATHER AND/OR OBSTRUCTIONS TO VISIBILITY.

* THESE REPORTS ARE NOT UNDER NWS QUALITY CONTROL AND MAY NOT
  REPORT WEATHER SUCH AS PRECIPITATION AND FOG.

KYZ079-080-083-085-087-088-110-112-115-119-120-300900
...EASTERN KENTUCKY...

CITY           SKY/WX    TMP DP  RH WIND       PRES   REMARKS
JACKSON        CLEAR     62  60  93 CALM      29.95F FOG
LONDON         FOG       58  56  93 CALM      29.96F VSB 1/4
SOMERSET*      FOG       57  57 100 CALM      29.97S VSB 1/4
MONTICELLO*    FOG       54  54 100 CALM      29.97S VSB<1/4
WILLIAMSBURG*    N/A     57  57 100 CALM      29.96F
MIDDLESBORO*   FOG       58  58 100 CALM      29.98S VSB 1/2
HARLAN APT*    CLOUDY    59  59 100 CALM      29.98S VSB<1/4
HAZARD APT*    FOG       61  61 100 CALM      29.95F VSB 3/4
BLACK MTN*       N/A     57  54  88 NE2         N/A
PIKEVILLE APT* CLEAR     61  59  94 S3        29.95F
BIG SANDY*     SUNNY     60  60  99 CALM      29.93
MOREHEAD APT*  PTSUNNY   57  55  94 CALM      29.96S
$$

KYZ035-036-041-042-044-050-067-078-099-300900
...CENTRAL KENTUCKY...

CITY           SKY/WX    TMP DP  RH WIND       PRES   REMARKS
MT STERLING*   CLEAR     52  52 100 SW6       29.96S
FLEMING/MASON* CLEAR     55  54  94 W3        29.95S
DANVILLE*      CLEAR     52  50  93 CALM      29.96S
RICHMOND*      CLEAR     54  52  94 CALM      29.95S
LEXINGTON      CLEAR     59  52  77 S3        29.94F
FRANKFORT      CLEAR     53  51  93 CALM      29.93F
$$

KYZ091>093-OHZ055-061-077-WVZ005-015-034-035-042-300900
...SOUTHERN OHIO/WEST VIRGINIA...

CITY           SKY/WX    TMP DP  RH WIND       PRES   REMARKS
COVINGTON      CLEAR     54  50  86 CALM      29.93F
COLUMBUS       CLEAR     54  51  90 CALM      29.90F
DAYTON         PTCLDY    58  50  75 SW5       29.92F
WILMINGTON     CLEAR     53  48  83 CALM      29.93S
HUNTINGTON     FOG       59  59 100 CALM      29.91S VSB 1/2
CHARLESTON     FOG       59  58  96 CALM      29.91F VSB 1/2
PINEVILLE*     FOG       60  60 100 MISG      30.02S VSB 1/2
BECKLEY        CLEAR     55  53  93 S3        29.98F FOG
BLUEFIELD      CLEAR     59  54  83 W7        30.01S
$$

VAZ002-007-008-TNZ017-027-036-066-071-300900
...SOUTHWEST VIRGINIA/EAST TENNESSEE...

CITY           SKY/WX    TMP DP  RH WIND       PRES   REMARKS
WISE*          FOG       57  57 100 CALM      30.01F VSB 1/4
JONESVILLE*    FOG       57  57 100 CALM      29.99F VSB<1/4
ABINGDON*      FOG       57  57 100 CALM      29.99S VSB 1/2
BRISTOL        FOG       55  53  93 CALM      29.97F VSB 1/4
KNOXVILLE      CLEAR     62  59  90 CALM      29.94
OAK RIDGE      FOG       62  61  96 CALM      29.96F VSB 1/2
CROSSVILLE     CLEAR     60  55  83 CALM      29.99S
NASHVILLE      CLEAR     62  59  90 S3        29.94F
$$

...KEY TO REMARKS...
VSB - VISIBILITY IN MILES
WCI - WIND CHILL INDEX
HX  - HEAT INDEX

$$


USA.gov is the U.S. government's official web portal to all federal, state and local government web resources and services.